This demonstration page uses our WeatherBlox Daily Observations layout. Learn more.

41.55636, -103.73856

Hourly Observations for September 25, 2017

Temp ( °F °C ) Dew Point ( °F °C ) Humidity (%) Winds ( mph kmh ) Pressure ( in mb ) Visibility ( mi km ) Precip ( " mm )
12:25 am 00:25 Cloudy with Light Rain 46 7.8 44 6.7 93 93 NW 6 9 30.12 1020 2 3.21868 0.01 0.254
12:36 am 00:36 Cloudy with Light Rain 46 7.8 44 6.7 93 93 NW 7 11 30.12 1020 2.5 4.02335 0.03 0.762
12:45 am 00:45 Cloudy with Light Rain 46 7.8 44 6.7 93 93 N 5 7 30.12 1020 4 6.43736 0.04 1.016
12:53 am 00:53 Cloudy with Light Rain 46 7.8 44 6.7 93 93 N 7 11 30.09 1019 4 6.43736 0.04 1.016
1:01 am 01:01 Cloudy with Light Rain 46 7.8 44 6.7 93 93 NNE 6 9 30.12 1020 5 8.0467 0.01 0.254
1:10 am 01:10 Cloudy with Light Rain 46 7.8 43 6.1 89 89 NNE 7 11 30.12 1020 7 11.26538 0.01 0.254
1:53 am 01:53 Cloudy 46 7.8 43 6.1 89 89 NNE 6 9 30.09 1019 10 16.0934 0.01 0.254
2:13 am 02:13 Cloudy 45 7.2 42 5.6 90 90 ENE 5 7 30.12 1020 10 16.0934 0 0
2:53 am 02:53 Mostly Clear 43 6.1 40 4.4 89 89 ENE 7 11 30.06 1018 10 16.0934 0 0
3:53 am 03:53 Clear 42 5.6 39 3.9 89 89 ENE 3 6 30.09 1019 10 16.0934 0 0
4:53 am 04:53 Cloudy 42 5.6 40 4.4 92 92 NW 3 6 30.1 1019 10 16.0934 0 0
5:04 am 05:04 Cloudy 43 6 39 4 87 87 N 5 7 30.15 1021 10 16.0934 0 0
5:27 am 05:27 Cloudy 43 6.1 40 4.4 89 89 N 5 7 30.15 1021 10 16.0934 0 0
5:46 am 05:46 Cloudy 45 7 39 4 81 81 NNE 6 9 30.12 1020 10 16.0934 0 0
5:53 am 05:53 Cloudy 44 6.7 40 4.4 85 85 NNE 6 9 30.09 1019 10 16.0934 0 0
6:18 am 06:18 Cloudy 44 6.7 40 4.4 85 85 N 5 7 30.15 1021 10 16.0934 0 0
6:53 am 06:53 Cloudy 44 6.7 40 4.4 85 85 NNE 5 7 30.1 1019 10 16.0934 0 0
7:14 am 07:14 Cloudy 45 7 39 4 81 81 NNE 7 11 30.12 1020 10 16.0934 0 0
7:24 am 07:24 Cloudy 45 7 39 4 81 81 NNE 6 9 30.12 1020 10 16.0934 0 0
7:53 am 07:53 Cloudy 44 6.7 40 4.4 85 85 ENE 7 11 30.13 1020 10 16.0934 0 0
8:53 am 08:53 Cloudy 44 6.7 40 4.4 85 85 Calm 30.13 1020 10 16.0934 0 0
9:53 am 09:53 Cloudy 46 7.8 41 5 83 83 ENE 3 6 30.13 1020 10 16.0934 0 0
10:30 am 10:30 Cloudy 47 8.3 41 5 80 80 N 5 7 30.12 1020 10 16.0934 0 0
10:41 am 10:41 Cloudy 47 8.3 41 5 80 80 Calm 30.12 1020 10 16.0934 0 0
10:53 am 10:53 Cloudy 49 9.4 41 5 74 74 E 3 6 30.12 1020 10 16.0934 0 0
11:37 am 11:37 Cloudy 48 8.9 40 4.4 74 74 Calm 30.12 1020 10 16.0934 0 0
11:53 am 11:53 Cloudy 50 10 41 5 71 71 Calm 30.09 1019 10 16.0934 0 0
12:00 pm 12:00 Cloudy 49 9.4 41 5 74 74 Calm 30.09 1019 10 16.0934 0 0
12:53 pm 12:53 Cloudy 50 10 40 4.4 68 68 VRB 3 6 30.09 1019 10 16.0934 0 0
1:53 pm 13:53 Cloudy 52 11.1 41 5 66 66 W 7 11 30.07 1018 10 16.0934 0 0
2:18 pm 14:18 Cloudy 53 11.7 40 4.4 61 61 VRB 5 7 30.03 1017 10 16.0934 0 0
2:30 pm 14:30 Cloudy 54 12 41 5 63 63 Calm 30.03 1017 10 16.0934 0 0
2:41 pm 14:41 Cloudy 53 11.7 41 5 64 64 SW 5 7 30.03 1017 10 16.0934 0 0
2:51 pm 14:51 Cloudy 54 12 39 4 58 58 Calm 30.03 1017 10 16.0934 0 0
2:53 pm 14:53 Cloudy 54 12.2 41 5 62 62 WNW 5 7 30.06 1018 10 16.0934 0 0
3:16 pm 15:16 Cloudy 55 13 39 4 55 55 Calm 30 1016 10 16.0934 0 0
3:53 pm 15:53 Cloudy 54 12.2 40 4.4 59 59 Calm 30.06 1018 10 16.0934 0 0
4:53 pm 16:53 Mostly Cloudy 56 13.3 41 5 57 57 Calm 30.05 1018 10 16.0934 0 0
5:53 pm 17:53 Partly Cloudy 55 12.8 42 5.6 62 62 SE 10 17 30.03 1017 10 16.0934 0 0
6:53 pm 18:53 Partly Cloudy 50 10 42 5.6 74 74 SE 6 9 30.06 1018 10 16.0934 0 0
7:53 pm 19:53 Clear 47 8.3 42 5.6 83 83 SE 6 9 30.09 1019 10 16.0934 0 0
8:43 pm 20:43 Mostly Cloudy 48 8.9 42 5.6 80 80 S 5 7 30.12 1020 10 16.0934 0 0
8:53 pm 20:53 Cloudy 48 8.9 42 5.6 80 80 Calm 30.13 1020 10 16.0934 0 0
9:44 pm 21:44 Mostly Cloudy 46 8 43 6 87 87 ESE 8 13 30.12 1020 10 16.0934 0 0
9:53 pm 21:53 Mostly Cloudy 47 8.3 42 5.6 83 83 ESE 7 11 30.1 1019 10 16.0934 0 0
10:53 pm 22:53 Cloudy 45 7.2 41 5 86 86 E 7 11 30.11 1020 10 16.0934 0 0
11:53 pm 23:53 Partly Cloudy 43 6.1 41 5 93 93 E 6 9 30.12 1020 10 16.0934 0 0

Powered by AerisWeather